DELTA 1 DEB, 42085

Orbit data source: Space-Track

DELTA 1 DEB, 42085 is space debris in SSO originally from a launch on Sun, 15 Dec 1968 UTC launched from the Air Force Western Test Range (AFWTR). Debris objects in space refer to the collection of defunct objects orbiting the Earth. Examples of debris include non-operational satellites, rocket bodies, and fragments generated from explosions, collisions, or faulty payload assembly.

Loading next visibility...
Identifier
42085, 1968-114M
Orbit
SSO
Last TLE update
1 day ago
Origin
Manufacturer
Aerojet
Mission
Spacecraft
Bus & Motor
Unknown
Mass
Unknown
Launch date (UTC)
1968-12-15 (56 years ago)
Launch vehicle
Unknown
Launch site
Air Force Western Test Range (AFWTR)
Object type
Payload
Rocket body
Debris
Shape & HBR
Unknown
Radar Cross Section
Small (<0.1 m²)

Expand to show TLE details & history

TLE from 1 day ago
0 DELTA 1 DEB
1 42085U 68114M   25128.01541645  .00000211  00000-0  10238-2 0  9993
2 42085 100.9273 194.5295 0117818 140.2591 342.2684 12.84286224537133
Epoch: 2025-05-08T00:22Z
Definitive object data (Epoch: 2025-05-08T00:22:11.981Z)
Latitude
56.3665°
Longitude
159.67082°
Altitude
1,247.186 km
Speed
7.277 km/s
True Right ascension
02h 05m 15s
True Declination
56° 13' 05"
Sunlit
Object was in daylight at TLE epoch
Visualization TLE readout
Latitude
-74.17563°
Longitude
6.88528°
Altitude
1,424.576 km
Speed
7.114 km/s
Apparent Right ascension
06h 00m 32s
Apparent Declination
-75° 39' 59"
Sunlit
Object is in daylight
Visualization observer readout
Local Sidereal Time
17:07:46
Azimuth
185.485° SSW
Elevation
-53.761°
Doppler factor
1
Orbital elements
Apogee altitude
1,412.457 km
Perigee altitude
1,231.02 km
Semi-major axis
7,699.876 km
Eccentricity
0.0117818
Inclination
100.9273°
RAAN
194.5295°
Arg. of periapsis
140.2591°
True anomaly
341.85137°
Mean anomaly
342.2684°
Eccentric anomaly
342.06048°
Mean motion
3.21231 °/min
BSTAR
0.0010238
Orbital period
112.07 mins
Loading maneuver chart data...
Loading SW <> Apogee altitude chart data...
Loading historical data...
Loading historical data...
Loading historical data...
Loading historical data...
Loading historical data...
Loading historical data...
Loading historical data...

DELTA 1 DEB Visibility forecast

Observer location: undefined°, undefined°

Span
Click to sort rows by Start time (UTC) header in descending order
Start Az.
Max El. time (UTC)
Max El. Az.
Max El.
End time (UTC)
End Az.
7 mins2025-05-09 15:40:31.337Z59.615° ENE2025-05-09 15:44:31.337Z95.084° ESE15.26°2025-05-09 15:47:31.337Z121.219° SE
12 mins2025-05-09 17:29:31.337Z14.958° NNE2025-05-09 17:35:31.337Z230.041° WSW44.685°2025-05-09 17:41:31.337Z200.867° SSW
7 mins2025-05-09 19:21:31.337Z333.491° NNW2025-05-09 19:24:31.337Z305.814° NW16.282°2025-05-09 19:28:31.337Z271.352° WNW
8 mins2025-05-10 02:25:31.337Z83.938° E2025-05-10 02:28:31.337Z56.767° ENE18.663°2025-05-10 02:33:31.337Z13.901° NNE
14 mins2025-05-10 04:11:31.337Z162.174° S2025-05-10 04:18:31.337Z335.505° NNW44.66°2025-05-10 04:25:31.337Z343.571° N
6 mins2025-05-10 06:06:31.337Z247.036° WSW2025-05-10 06:09:31.337Z272.746° WNW15.353°2025-05-10 06:12:31.337Z297.67° NW
|